SRQ625 RPLL-RPVE

Flight info

Callsign SRQ625
Flight time N/A
Altitude 15000
Route HARBO DCT VERDE W24 TAPER TAPER7A
Aircraft AT76/M-SDFGIRY/S

Departure

Time 2026-05-06 14:58
Airport Ninoy Aquino International Airport (RPLL)

Arrival

Time N/A
Airport Godofredo P. Ramos Airport (RPVE)
Time Latitude Longitude Altitude Speed Heading
2026-05-06 14:23 14.52527 121.00170 50 ft 0 kts 223°
2026-05-06 14:48 14.52529 121.00172 50 ft 3 kts 223°
2026-05-06 14:48 14.52550 121.00186 47 ft 2 kts 182°
2026-05-06 14:48 14.52576 121.00184 49 ft 2 kts 151°
2026-05-06 14:48 14.52577 121.00185 49 ft 0 kts 140°
2026-05-06 14:49 14.52573 121.00188 48 ft 2 kts 140°
2026-05-06 14:49 14.52552 121.00210 48 ft 0 kts 130°
2026-05-06 14:49 14.52543 121.00221 50 ft 1 kts 131°
2026-05-06 14:50 14.52537 121.00228 50 ft 2 kts 134°
2026-05-06 14:50 14.52536 121.00229 50 ft 0 kts 134°
2026-05-06 14:50 14.52522 121.00243 50 ft 6 kts 134°
2026-05-06 14:51 14.52481 121.00284 50 ft 8 kts 137°
2026-05-06 14:51 14.52435 121.00330 50 ft 11 kts 133°
2026-05-06 14:51 14.52390 121.00378 50 ft 0 kts 135°
2026-05-06 14:51 14.52377 121.00391 49 ft 3 kts 135°
2026-05-06 14:52 14.52343 121.00426 47 ft 6 kts 135°
2026-05-06 14:52 14.52334 121.00434 48 ft 5 kts 135°
2026-05-06 14:52 14.52295 121.00475 48 ft 10 kts 135°
2026-05-06 14:52 14.52274 121.00496 47 ft 4 kts 135°
2026-05-06 14:53 14.52246 121.00525 46 ft 0 kts 136°
2026-05-06 14:57 14.52244 121.00527 46 ft 1 kts 136°
2026-05-06 14:58 14.52144 121.00628 41 ft 57 kts 135°
2026-05-06 14:58 14.51692 121.01089 43 ft 121 kts 137°
2026-05-06 14:58 14.51090 121.01778 454 ft 134 kts 133°
2026-05-06 14:58 14.50410 121.02515 983 ft 149 kts 135°
2026-05-06 14:59 14.49744 121.03311 1668 ft 146 kts 135°
2026-05-06 14:59 14.49060 121.04109 2060 ft 159 kts 136°
2026-05-06 14:59 14.48262 121.05029 2221 ft 182 kts 136°
2026-05-06 14:59 14.47396 121.06004 2616 ft 187 kts 136°
2026-05-06 15:00 14.46506 121.06997 3088 ft 187 kts 136°
2026-05-06 15:00 14.45462 121.07710 3483 ft 181 kts 172°
2026-05-06 15:00 14.44216 121.07928 3969 ft 181 kts 175°
2026-05-06 15:00 14.42972 121.08130 4457 ft 183 kts 175°
2026-05-06 15:01 14.41704 121.08307 4931 ft 184 kts 176°
2026-05-06 15:01 14.40437 121.08469 5373 ft 185 kts 176°
2026-05-06 15:01 14.39146 121.08627 5819 ft 186 kts 177°
2026-05-06 15:01 14.37847 121.08782 6262 ft 188 kts 177°
2026-05-06 15:02 14.36553 121.08938 6686 ft 189 kts 177°
2026-05-06 15:02 14.36110 121.08991 6832 ft 189 kts 177°
2026-05-06 15:02 14.35669 121.09044 6975 ft 189 kts 177°